Retour au catalogue

CZ-6A DEB

ActifSSO
NORAD 54278·DEBRIS·🇨🇳 China

Lancé Nov 11, 2022 depuis Taiyuan Satellite Launch Center

Loading…

Prochains Passages (prochaines 24 heures)

TLE

FraisSource: Space-Track

Époque: Sep 13, 2026, 23:06 UTC

1 54278U 22151V   26256.96282669  .00003362  00000-0  11533-2 0  9995
2 54278  98.6692 253.4037 0104012 259.5598  99.3852 14.33805489198091

Suivez CZ-6A DEB en temps réel avec AllMySat

Download on the App Store